[[{"header":{"parameterUnit":"m.s-1","parameterCategory":1,"la1":30.2991,"la2":30.254,"lo1":-89.0895,"lo2":-89.0444,"dy":0.0017,"dx":0.0017,"nx":28,"ny":28,"refTime":"2025-05-28T03:00:00:Z","depth":0,"parameterNumber":2,"parameterNumberName":"U-component_of_WINDS"},"data":[0,0,0,0,0,0,0,0,0,0,0,0,0,0,0,0,0,0,0,0,0,0,0,0,0,0,0,0,0,0,0,0,0,0,0,0,0,0,0,0,0,0,0,0,0,0,0,0,0,0,0,0,0,0,0,0,0,0,0.8641,0.8643,0,0.8815,0.8817,0.8819,0.8894,0.8894,0.8893,0.8893,0.9074,0.9079,0.9084,0,0,0,0,0,0,0,0,0,0,0,0,0,0.8375,0.838,0.8641,0.8643,0.8645,0.8814,0.8817,0.8819,0.8894,0.8894,0.8893,0.8893,0.9072,0.9078,0.9084,0,0,0,0,0,0,0,0,0,0,0,0,0,0.8514,0.8381,0.8641,0.8703,0.871,0.8814,0.8817,0.882,0.8894,0.8894,0.8893,0.8893,0.907,0.9077,0.9085,0.914,0,0,0.9108,0.9111,0,0,0,0,0,0,0,0,0.8506,0.8524,0.8692,0.8699,0.8707,0.8832,0.8789,0.8927,0.8894,0.8824,0.8893,0.8893,0.8994,0.9008,0.9041,0.9148,0.9156,0.9109,0.9113,0.9117,0.9119,0,0,0,0,0,0,0,0.8496,0.8517,0.871,0.8694,0.8704,0.8723,0.8742,0.8816,0.8909,0.8831,0.8836,0.8856,0.8998,0.9034,0.9046,0.9159,0.9108,0.9115,0.912,0.9123,0.9318,0.9319,0,0,0,0,0,0,0.8476,0.8508,0.8704,0.8715,0.8603,0.8728,0.8749,0.8793,0.8909,0.8926,0.8856,0.8859,0.9021,0.9037,0.9053,0.9124,0.9116,0.9124,0.9128,0.9317,0.9318,0.9319,0,0,0,0,0,0,0.847,0.8493,0.8697,0.8613,0.8641,0.8733,0.8781,0.8796,0.8832,0.8928,0.8945,0.8875,0.9021,0.9042,0.9117,0.9131,0.9127,0.9134,0.9317,0.9318,0.9319,0.9267,0,0,0,0,0,0,0.8462,0.849,0.8512,0.8613,0.8645,0.8759,0.8782,0.88,0.8845,0.885,0.8951,0.8967,0.9022,0.9105,0.9125,0.9142,0.914,0.9316,0.9317,0.9318,0.9268,0.9266,0.9265,0,0,0,0,0,0.8452,0.8492,0.8513,0.8536,0.8674,0.8759,0.8778,0.884,0.8845,0.8868,0.8929,0.8964,0.9126,0.9112,0.9135,0.9154,0.9315,0.9317,0.9318,0.9269,0.9267,0.9265,0,0,0,0,0,0,0.8392,0.8507,0.8531,0.8605,0.8671,0.8772,0.8803,0.8836,0.8904,0.8906,0.8981,0.9003,0.9071,0.912,0.9103,0.9213,0.9224,0.9229,0.9178,0.9177,0.9175,0.9163,0.9146,0,0,0,0,0,0.8387,0.8446,0.8543,0.8598,0.8631,0.871,0.875,0.8792,0.8865,0.8894,0.8961,0.903,0.9097,0.914,0.9207,0.9275,0.9298,0.9299,0.9297,0.9296,0.93,0.9339,0.934,0.9324,0.9323,0.9323,0,0,0.8378,0.8448,0.8481,0.8588,0.8645,0.8704,0.8734,0.8796,0.8841,0.8904,0.8978,0.9029,0.9112,0.9183,0.9218,0.9226,0.9309,0.9297,0.9295,0.9301,0.934,0.9342,0.9343,0.9324,0.9324,0.9324,0,0,0.8392,0.845,0.8502,0.8558,0.8643,0.8695,0.8707,0.8802,0.8838,0.8914,0.8961,0.9015,0.9129,0.9186,0.9229,0.9261,0.9294,0.928,0.9272,0.9309,0.931,0.9311,0.9322,0.9325,0.9284,0.9284,0.9284,0,0.837,0.8461,0.8525,0.8584,0.8629,0.8686,0.8739,0.879,0.8893,0.8923,0.893,0.9072,0.9132,0.9216,0.9223,0.9257,0.9273,0.927,0.9304,0.9307,0.9309,0.932,0.9324,0.9282,0.9282,0.9282,0.9283,0,0.8429,0.8492,0.8523,0.8619,0.8668,0.8724,0.8795,0.8837,0.8874,0.8925,0.9,0.9074,0.9155,0.9178,0.9216,0.9268,0.927,0.929,0.9302,0.9307,0.9319,0.9324,0.9279,0.9279,0.928,0.9281,0,0,0.8412,0.854,0.8551,0.8594,0.8691,0.8741,0.8798,0.8876,0.891,0.8978,0.9028,0.9121,0.9139,0.9188,0.9232,0.9264,0.9283,0.928,0.9283,0.9278,0.9344,0.9329,0.9333,0.9305,0.9306,0.9307,0.9337,0,0.8439,0.8544,0.8601,0.8682,0.874,0.8793,0.8843,0.8908,0.8956,0.9013,0.9067,0.9131,0.9151,0.918,0.9214,0.9273,0.9297,0.9272,0.9353,0.9355,0.9331,0.9339,0.9324,0.9349,0.9342,0.9343,0.9344,0,0.8485,0.855,0.8636,0.8724,0.875,0.8794,0.887,0.8922,0.8996,0.9029,0.9082,0.9125,0.9187,0.9194,0.928,0.9261,0.9297,0.9331,0.9334,0.9345,0.935,0.935,0.9359,0.9362,0.9352,0.9351,0.935,0,0.8463,0.8572,0.8638,0.8673,0.8777,0.8807,0.8851,0.8925,0.8967,0.9033,0.9062,0.9134,0.9174,0.9229,0.929,0.9289,0.937,0.9382,0.94,0.9398,0.9416,0.9414,0.943,0.9438,0.9438,0.9437,0.9437,0,0.8487,0.8537,0.8629,0.8669,0.8726,0.8792,0.8847,0.8896,0.896,0.9011,0.9061,0.9108,0.9185,0.9241,0.9289,0.9353,0.9371,0.9399,0.9412,0.9395,0.9391,0.9421,0.9421,0.9439,0.9438,0.9438,0.9438,0,0.8473,0.8536,0.8611,0.8702,0.8726,0.8765,0.8843,0.8884,0.8934,0.8997,0.9016,0.9095,0.9163,0.9229,0.9321,0.9353,0.9417,0.9433,0.9391,0.9398,0.9412,0.941,0.9449,0.9457,0.9458,0.9457,0.9457,0,0.8484,0.8524,0.8619,0.8656,0.8699,0.8758,0.8801,0.8866,0.8909,0.8995,0.9025,0.9096,0.9157,0.9263,0.9329,0.9399,0.9418,0.9426,0.9429,0.9411,0.9418,0.9415,0.9419,0.9425,0.9425,0.9424,0.9424,0,0.8497,0.8526,0.8586,0.8657,0.8706,0.8765,0.8826,0.8853,0.893,0.8976,0.9045,0.9092,0.9184,0.9255,0.9332,0.9378,0.9414,0.9422,0.943,0.9414,0.9389,0.9403,0.9387,0.9422,0.9422,0.9422,0.9422,0.9422,0.8497,0.8534,0.8606,0.8671,0.8723,0.8778,0.882,0.8874,0.8933,0.9013,0.9047,0.9117,0.9188,0.9295,0.9341,0.9397,0.9406,0.9417,0.942,0.9422,0.9418,0.9378,0.9411,0.9411,0.9411,0.9411,0.9412,0,0.8512,0.856,0.8619,0.8702,0.8752,0.8779,0.8848,0.8888,0.8949,0.9011,0.9069,0.9148,0.9216,0.9286,0.9358,0.9389,0.9407,0.9406,0.9404,0.9414,0.9406,0.9392,0.939,0.939,0.939,0.939,0.939,0.939,0.8526,0.859,0.8627,0.8717,0.8765,0.8833,0.887,0.892,0.897,0.9056,0.9112,0.9157,0.9222,0.9299,0.9362,0.9381,0.9405,0.9399,0.9422,0.9414,0.9415,0.9417,0.9404,0.9403,0.9403,0.9426,0.9426,0.9426]},{"header":{"parameterUnit":"m.s-1","parameterCategory":1,"la1":30.2991,"la2":30.254,"lo1":-89.0895,"lo2":-89.0444,"dy":0.0017,"dx":0.0017,"nx":28,"ny":28,"refTime":"2025-05-28T03:00:00:Z","depth":0,"parameterNumber":3,"parameterNumberName":"V-component_of_WINDS"},"data":[0,0,0,0,0,0,0,0,0,0,0,0,0,0,0,0,0,0,0,0,0,0,0,0,0,0,0,0,0,0,0,0,0,0,0,0,0,0,0,0,0,0,0,0,0,0,0,0,0,0,0,0,0,0,0,0,0,0,3.0784,3.0784,0,3.0721,3.0721,3.072,3.0662,3.0662,3.0661,3.066,3.0593,3.0592,3.0591,0,0,0,0,0,0,0,0,0,0,0,0,0,3.0852,3.0851,3.0784,3.0784,3.0783,3.0722,3.0721,3.072,3.0662,3.0662,3.0661,3.066,3.0594,3.0592,3.0591,0,0,0,0,0,0,0,0,0,0,0,0,0,3.0809,3.0851,3.0785,3.0747,3.0743,3.0722,3.0721,3.072,3.0663,3.0662,3.0661,3.066,3.0594,3.0593,3.0591,3.0601,0,0,3.0586,3.0585,0,0,0,0,0,0,0,0,3.0812,3.0807,3.0753,3.0749,3.0745,3.0699,3.072,3.068,3.0663,3.0693,3.066,3.0659,3.0629,3.0624,3.0615,3.0598,3.0595,3.0585,3.0584,3.0584,3.0583,0,0,0,0,0,0,0,3.0815,3.0809,3.0759,3.0752,3.0747,3.0732,3.0725,3.0712,3.0668,3.069,3.0686,3.0679,3.0627,3.0617,3.0613,3.0594,3.0586,3.0584,3.0583,3.0582,3.0582,3.0583,0,0,0,0,0,0,3.0824,3.0812,3.0761,3.0757,3.0777,3.0732,3.0724,3.0715,3.0668,3.0659,3.068,3.0677,3.062,3.0615,3.061,3.0619,3.0584,3.0582,3.0581,3.0581,3.0582,3.0583,0,0,0,0,0,0,3.0826,3.082,3.0764,3.0784,3.0775,3.0732,3.0722,3.0714,3.0704,3.066,3.0652,3.0679,3.0619,3.0613,3.0604,3.0616,3.0581,3.058,3.058,3.0581,3.0582,3.0636,0,0,0,0,0,0,3.0828,3.0821,3.0825,3.0784,3.0775,3.076,3.0723,3.0713,3.0701,3.0696,3.0656,3.0648,3.0618,3.0607,3.0602,3.0613,3.0578,3.0578,3.058,3.0582,3.0633,3.0639,3.0645,0,0,0,0,0,3.083,3.0842,3.0826,3.082,3.0779,3.076,3.0755,3.072,3.0703,3.0706,3.0678,3.065,3.0615,3.0606,3.0601,3.0611,3.0577,3.058,3.0582,3.063,3.0638,3.0644,0,0,0,0,0,0,3.0884,3.0836,3.0817,3.0816,3.0793,3.0751,3.0754,3.0729,3.0709,3.0705,3.0662,3.0654,3.0649,3.0629,3.062,3.0618,3.0592,3.0594,3.0631,3.0638,3.0644,3.0648,3.0577,0,0,0,0,0,3.0897,3.0886,3.0844,3.0847,3.0837,3.0798,3.0788,3.0763,3.0737,3.0727,3.0698,3.0673,3.0656,3.0646,3.0628,3.063,3.062,3.0634,3.064,3.0645,3.0646,3.0645,3.065,3.059,3.059,3.059,0,0,3.0921,3.0893,3.0889,3.0858,3.0837,3.0826,3.079,3.078,3.0772,3.0725,3.0715,3.0693,3.0662,3.0659,3.0655,3.0641,3.0661,3.0648,3.0652,3.065,3.0648,3.0653,3.0659,3.0592,3.0592,3.0591,0,0,3.096,3.0938,3.0938,3.0918,3.0887,3.0861,3.0861,3.0823,3.0807,3.0796,3.0761,3.075,3.0722,3.0701,3.0687,3.0719,3.0692,3.0714,3.0744,3.0743,3.0748,3.0752,3.0762,3.0766,3.0716,3.0716,3.0716,0,3.0993,3.0977,3.0941,3.0934,3.0921,3.0879,3.0878,3.086,3.0825,3.0816,3.0802,3.0766,3.0742,3.0733,3.0741,3.0731,3.0729,3.0718,3.075,3.0754,3.0757,3.0766,3.077,3.0719,3.0718,3.0718,3.0718,0,3.102,3.1009,3.1013,3.0981,3.0968,3.0964,3.0927,3.0918,3.0894,3.087,3.0859,3.0829,3.0805,3.0801,3.0777,3.0788,3.078,3.0758,3.0732,3.0766,3.0774,3.0778,3.0723,3.0722,3.0721,3.072,0,0,3.109,3.1039,3.1041,3.1025,3.0988,3.0979,3.0973,3.095,3.0943,3.092,3.0913,3.0891,3.0871,3.0855,3.0829,3.0828,3.0854,3.0806,3.0805,3.0815,3.0863,3.0879,3.0884,3.0836,3.0837,3.0837,3.0865,0,3.1122,3.111,3.1077,3.1074,3.1064,3.1024,3.1019,3.0995,3.0972,3.0958,3.0932,3.0917,3.0892,3.0882,3.088,3.0851,3.0863,3.0849,3.0828,3.0828,3.0837,3.0888,3.0905,3.0933,3.0868,3.0869,3.0869,0,3.1158,3.1138,3.1135,3.1098,3.1092,3.1088,3.1064,3.1053,3.1025,3.1008,3.099,3.0962,3.0952,3.0928,3.0914,3.0905,3.0895,3.088,3.088,3.0876,3.085,3.0885,3.0941,3.0945,3.0874,3.0874,3.0873,0,3.1208,3.1181,3.1175,3.1164,3.1121,3.1119,3.1101,3.1073,3.1061,3.1039,3.1031,3.1009,3.0997,3.098,3.0945,3.0931,3.0935,3.0908,3.0919,3.092,3.0921,3.0921,3.0975,3.0916,3.0916,3.0916,3.0916,0,3.1247,3.1246,3.1198,3.1194,3.1192,3.1154,3.1153,3.1131,3.1106,3.1096,3.1061,3.1053,3.1008,3.0995,3.0968,3.096,3.0955,3.094,3.0933,3.0943,3.0944,3.0935,3.0931,3.0917,3.0917,3.0916,3.0916,0,3.1303,3.127,3.1261,3.1223,3.1213,3.1213,3.1179,3.1173,3.1148,3.1137,3.1132,3.1092,3.1075,3.1039,3.1011,3.0993,3.0991,3.0978,3.1001,3.0996,3.1009,3.1008,3.1058,3.1062,3.1001,3.1002,3.1002,0,3.1329,3.1327,3.1289,3.1281,3.1264,3.1251,3.1239,3.1202,3.1191,3.1159,3.1158,3.1137,3.1119,3.1092,3.106,3.1039,3.1025,3.1044,3.1021,3.1032,3.1024,3.1025,3.1024,3.1049,3.105,3.1051,3.1051,0,3.1379,3.1363,3.1348,3.1327,3.1314,3.1295,3.1275,3.127,3.1228,3.1217,3.1199,3.1185,3.1157,3.1137,3.1111,3.1091,3.1064,3.1059,3.106,3.107,3.1082,3.1075,3.1014,3.1057,3.1057,3.1056,3.1056,3.1056,3.142,3.1416,3.1389,3.1373,3.1354,3.1336,3.1329,3.1303,3.1288,3.1263,3.1242,3.1226,3.1197,3.1159,3.1142,3.1127,3.1114,3.1116,3.1117,3.1118,3.1122,3.1086,3.1123,3.1122,3.1122,3.1122,3.1122,0,3.1467,3.1447,3.1433,3.1406,3.1393,3.1371,3.1347,3.1337,3.1324,3.13,3.1283,3.1262,3.1243,3.121,3.1187,3.1182,3.1169,3.1178,3.1177,3.1173,3.1135,3.1136,3.1189,3.1189,3.1189,3.1189,3.1189,3.1189,3.149,3.1483,3.1464,3.1448,3.1428,3.1412,3.1401,3.1383,3.1364,3.1343,3.1327,3.1306,3.1278,3.1254,3.1234,3.1225,3.1218,3.123,3.1217,3.1182,3.1176,3.117,3.117,3.1229,3.1229,3.1256,3.1256,3.1256]}]]